Terminal Aerodrome Forecast
Issued by NWS

Home | Current Version | Previous Version | Text Only | Print | Product List | Glossary On
Versions: 1 2 3 4 5 6 7 8 9 10 11 12 13 14 15 16 17 18 19 20 21 22 23 24 25 26 27 28 29 30 31 32 33 34 35 36 37 38 39
000
FTPA31 PHFO 250500
TAFLNY
TAF
PHNY 250523Z 2506/2606 05012KT P6SM FEW020
     FM252000 24008KT P6SM BKN025
     FM260100 05014KT P6SM SCT030
      AMD NOT SKED=

USA.gov is the U.S. government's official web portal to all federal, state and local government web resources and services.